Location: Siloam Springs
(36.1881°N, 94.5403°W)
Time: 06:59:10
(UTC-05:00)

CUBESAT XI-V - Pass Details

Date: 02 June 2024
Orbit: 657 x 679 km, 98.2° (Epoch: 16 June)

Event Time Altitude Azimuth Distance (km) Brightness Sun altitude
Exits shadow 04:14:37 27° 263° (W) 1,248 ? -17.9°
Maximum altitude 04:14:38 27° 263° (W) 1,248 ? -17.9°
Drops below altitude 10° 04:18:30 10° 322° (NW) 2,074 ? -17.4°
Sets 04:21:00 0° 334° (NNW) 2,990 ? -17.1°
